Index of /20260507/WXO-DD/model_gdps/15km/00/083
Name Last modified Size Description
Parent Directory -
20260507T00Z_MSC_GDPS_AirTemp_AGL-120m_LatLon0.15_PT083H.grib2 2026-05-07 04:11 785K
20260507T00Z_MSC_GDPS_AirTemp_AGL-2m_LatLon0.15_PT083H.grib2 2026-05-07 04:11 1.0M
20260507T00Z_MSC_GDPS_AirTemp_AGL-40m_LatLon0.15_PT083H.grib2 2026-05-07 04:11 802K
20260507T00Z_MSC_GDPS_AirTemp_AGL-80m_LatLon0.15_PT083H.grib2 2026-05-07 04:11 793K
20260507T00Z_MSC_GDPS_Albedo_Sfc_LatLon0.15_PT083H.grib2 2026-05-07 04:11 240K
20260507T00Z_MSC_GDPS_ConvectivePrecip-Accum_Sfc_LatLon0.15_PT083H.grib2 2026-05-07 04:11 3.2M
20260507T00Z_MSC_GDPS_DewPointDepression_AGL-2m_LatLon0.15_PT083H.grib2 2026-05-07 04:11 588K
20260507T00Z_MSC_GDPS_DewPoint_AGL-2m_LatLon0.15_PT083H.grib2 2026-05-07 04:11 603K
20260507T00Z_MSC_GDPS_DownwardLongwaveRadiationFlux-Accum_Sfc_LatLon0.15_PT083H.grib2 2026-05-07 04:11 694K
20260507T00Z_MSC_GDPS_DownwardShortwaveRadiationFlux-Accum_Sfc_LatLon0.15_PT083H.grib2 2026-05-07 04:11 918K
20260507T00Z_MSC_GDPS_FreezingRain-Accum1h_Sfc_LatLon0.15_PT083H.grib2 2026-05-07 04:11 62K
20260507T00Z_MSC_GDPS_FreezingRain-Accum_Sfc_LatLon0.15_PT083H.grib2 2026-05-07 04:11 246K
20260507T00Z_MSC_GDPS_IcePellets-Accum1h_Sfc_LatLon0.15_PT083H.grib2 2026-05-07 04:11 22K
20260507T00Z_MSC_GDPS_IcePellets-Accum_Sfc_LatLon0.15_PT083H.grib2 2026-05-07 04:11 115K
20260507T00Z_MSC_GDPS_LatentHeatNetFlux_Sfc_LatLon0.15_PT083H.grib2 2026-05-07 04:11 739K
20260507T00Z_MSC_GDPS_NetLongwaveRadiationFlux-Accum_Sfc_LatLon0.15_PT083H.grib2 2026-05-07 04:11 922K
20260507T00Z_MSC_GDPS_NetShortwaveRadiationFlux-Accum_Sfc_LatLon0.15_PT083H.grib2 2026-05-07 04:11 884K
20260507T00Z_MSC_GDPS_O3MixingRatio_Sfc_LatLon0.15_PT083H.grib2 2026-05-07 04:55 2.2M
20260507T00Z_MSC_GDPS_O3_EAtm_LatLon0.15_PT083H.grib2 2026-05-07 04:55 2.5M
20260507T00Z_MSC_GDPS_PlanetaryBoundaryLayerHeight_Sfc_LatLon0.15_PT083H.grib2 2026-05-07 04:11 2.5M
20260507T00Z_MSC_GDPS_Precip-Accum1h_Sfc_LatLon0.15_PT083H.grib2 2026-05-07 04:11 3.1M
20260507T00Z_MSC_GDPS_Precip-Accum_Sfc_LatLon0.15_PT083H.grib2 2026-05-07 04:11 5.0M
20260507T00Z_MSC_GDPS_PrecipRate_Sfc_LatLon0.15_PT083H.grib2 2026-05-07 04:11 2.8M
20260507T00Z_MSC_GDPS_Pressure_MSL_LatLon0.15_PT083H.grib2 2026-05-07 04:11 830K
20260507T00Z_MSC_GDPS_Pressure_Sfc_LatLon0.15_PT083H.grib2 2026-05-07 04:11 1.1M
20260507T00Z_MSC_GDPS_RadiativeTemp_Sfc_LatLon0.15_PT083H.grib2 2026-05-07 04:11 494K
20260507T00Z_MSC_GDPS_Rain-Accum1h_Sfc_LatLon0.15_PT083H.grib2 2026-05-07 04:11 1.5M
20260507T00Z_MSC_GDPS_Rain-Accum_Sfc_LatLon0.15_PT083H.grib2 2026-05-07 04:11 3.8M
20260507T00Z_MSC_GDPS_RelativeHumidity_AGL-2m_LatLon0.15_PT083H.grib2 2026-05-07 04:11 1.0M
20260507T00Z_MSC_GDPS_Runoff-Accum_Sfc_LatLon0.15_PT083H.grib2 2026-05-07 04:11 120K
20260507T00Z_MSC_GDPS_SensibleHeatNetFlux_Sfc_LatLon0.15_PT083H.grib2 2026-05-07 04:11 487K
20260507T00Z_MSC_GDPS_Snow-Accum1h_Sfc_LatLon0.15_PT083H.grib2 2026-05-07 04:11 1.1M
20260507T00Z_MSC_GDPS_Snow-Accum_Sfc_LatLon0.15_PT083H.grib2 2026-05-07 04:11 2.0M
20260507T00Z_MSC_GDPS_SnowDepth_Sfc_LatLon0.15_PT083H.grib2 2026-05-07 04:11 1.7M
20260507T00Z_MSC_GDPS_SoilTemp_DBS-0to10cm_LatLon0.15_PT083H.grib2 2026-05-07 04:11 510K
20260507T00Z_MSC_GDPS_SoilTemp_Sfc_LatLon0.15_PT083H.grib2 2026-05-07 04:11 591K
20260507T00Z_MSC_GDPS_SoilVolumetricWaterContent_DBS-0to10cm_LatLon0.15_PT083H.grib2 2026-05-07 04:11 600K
20260507T00Z_MSC_GDPS_SoilVolumetricWaterContent_DBS-0to1cm_LatLon0.15_PT083H.grib2 2026-05-07 04:11 647K
20260507T00Z_MSC_GDPS_SpecificHumidity_AGL-120m_LatLon0.15_PT083H.grib2 2026-05-07 04:11 1.1M
20260507T00Z_MSC_GDPS_SpecificHumidity_AGL-2m_LatLon0.15_PT083H.grib2 2026-05-07 04:11 1.2M
20260507T00Z_MSC_GDPS_SpecificHumidity_AGL-40m_LatLon0.15_PT083H.grib2 2026-05-07 04:11 1.1M
20260507T00Z_MSC_GDPS_SpecificHumidity_AGL-80m_LatLon0.15_PT083H.grib2 2026-05-07 04:11 1.1M
20260507T00Z_MSC_GDPS_SpecificHumidity_Sfc_LatLon0.15_PT083H.grib2 2026-05-07 04:11 683K
20260507T00Z_MSC_GDPS_TotalCloudCover_Sfc_LatLon0.15_PT083H.grib2 2026-05-07 04:11 826K
20260507T00Z_MSC_GDPS_UVIndex-ClearSky_Sfc_LatLon0.15_PT083H.grib2 2026-05-07 04:55 1.0M
20260507T00Z_MSC_GDPS_UVIndex_Sfc_LatLon0.15_PT083H.grib2 2026-05-07 04:55 1.5M
20260507T00Z_MSC_GDPS_UpwardLongwaveRadiationFlux_NTAtm_LatLon0.15_PT083H.grib2 2026-05-07 04:11 843K
20260507T00Z_MSC_GDPS_WindDir_AGL-10m_LatLon0.15_PT083H.grib2 2026-05-07 04:11 1.3M
20260507T00Z_MSC_GDPS_WindDir_AGL-120m_LatLon0.15_PT083H.grib2 2026-05-07 04:11 1.3M
20260507T00Z_MSC_GDPS_WindDir_AGL-40m_LatLon0.15_PT083H.grib2 2026-05-07 04:11 1.3M
20260507T00Z_MSC_GDPS_WindDir_AGL-80m_LatLon0.15_PT083H.grib2 2026-05-07 04:11 1.3M
20260507T00Z_MSC_GDPS_WindDir_IsbL-0700_LatLon0.15_PT083H.grib2 2026-05-07 04:11 1.6M
20260507T00Z_MSC_GDPS_WindGust-Max_AGL-10m_LatLon0.15_PT083H.grib2 2026-05-07 04:11 2.2M
20260507T00Z_MSC_GDPS_WindGust-Min_AGL-10m_LatLon0.15_PT083H.grib2 2026-05-07 04:11 2.1M
20260507T00Z_MSC_GDPS_WindGust_AGL-10m_LatLon0.15_PT083H.grib2 2026-05-07 04:11 2.1M
20260507T00Z_MSC_GDPS_WindSpeed_AGL-10m_LatLon0.15_PT083H.grib2 2026-05-07 04:11 1.1M
20260507T00Z_MSC_GDPS_WindSpeed_AGL-120m_LatLon0.15_PT083H.grib2 2026-05-07 04:11 1.2M
20260507T00Z_MSC_GDPS_WindSpeed_AGL-40m_LatLon0.15_PT083H.grib2 2026-05-07 04:11 1.2M
20260507T00Z_MSC_GDPS_WindSpeed_AGL-80m_LatLon0.15_PT083H.grib2 2026-05-07 04:11 1.2M
20260507T00Z_MSC_GDPS_WindSpeed_IsbL-0700_LatLon0.15_PT083H.grib2 2026-05-07 04:11 1.5M
20260507T00Z_MSC_GDPS_WindU_AGL-10m_LatLon0.15_PT083H.grib2 2026-05-07 04:11 1.3M
20260507T00Z_MSC_GDPS_WindU_AGL-120m_LatLon0.15_PT083H.grib2 2026-05-07 04:11 962K
20260507T00Z_MSC_GDPS_WindU_AGL-40m_LatLon0.15_PT083H.grib2 2026-05-07 04:11 959K
20260507T00Z_MSC_GDPS_WindU_AGL-80m_LatLon0.15_PT083H.grib2 2026-05-07 04:11 962K
20260507T00Z_MSC_GDPS_WindU_IsbL-0700_LatLon0.15_PT083H.grib2 2026-05-07 04:11 1.2M
20260507T00Z_MSC_GDPS_WindV_AGL-10m_LatLon0.15_PT083H.grib2 2026-05-07 04:11 1.3M
20260507T00Z_MSC_GDPS_WindV_AGL-120m_LatLon0.15_PT083H.grib2 2026-05-07 04:11 965K
20260507T00Z_MSC_GDPS_WindV_AGL-40m_LatLon0.15_PT083H.grib2 2026-05-07 04:11 961K
20260507T00Z_MSC_GDPS_WindV_AGL-80m_LatLon0.15_PT083H.grib2 2026-05-07 04:11 965K
20260507T00Z_MSC_GDPS_WindV_IsbL-0700_LatLon0.15_PT083H.grib2 2026-05-07 04:11 1.2M